Flag for Finland Weather past 2 weeks in Espoo, Finland

Now
64 °F

Scattered clouds.


Feels Like: 64 °F
Forecast: 51 / 66 °F
Wind: 6 mph from Southeast

Location: Helsinki-Vantaa

Current Time: Jul 28, 2015 at 12:04:55 PM

Latest Report: Jul 28, 2015 at 11:20 AM


Visibility: N/A

Pressure: 29.68 "Hg

Humidity: 56%

Dew point: 48 °F

Location of EspooLocation

Historic Weather in Espoo — Graph

°F

Espoo temperature yesterday

Maximum temperature yesterday: 64 °F (at 11:50 AM)
Minimum temperature yesterday: 52 °F (at 11:50 PM)
Average temperature yesterday: 60 °F

Past Weeks' High & Low Weather Summary

 TemperatureHumidityPressure
High72 °F (Jul 15, 5:20 PM)100% (Jul 13, 10:20 PM)29.92 "Hg (Jul 13, 10:20 PM)
Low43 °F (Jul 28, 4:20 AM)38% (Jul 15, 5:20 PM)29.50 "Hg (Jul 22, 8:20 AM)
Average60 °F79%29.72 "Hg
* Reported Jul 13 10:20 AM — Jul 28 10:50 AM, Espoo, Weather by CustomWeather, © 2015

Note: Actual official high and low records may vary slightly from our data, if they occured in-between our weather recording intervals... More about our weather records

Advertising

Espoo weather history for previous 24 hours

 ConditionsComfort  
Time TempWeatherWind HumidityBarometerVisibility
10:50 AM
Tue, Jul 28
64 °FScattered clouds.6 mph56%29.68 "HgN/A
10:20 AM63 °FScattered clouds.6 mph64%29.68 "HgN/A
9:50 AM63 °FScattered clouds.3 mph68%29.68 "HgN/A
9:20 AM59 °FSunny.5 mph77%29.68 "Hg10 mi
8:50 AM57 °FPassing clouds.5 mph82%29.68 "HgN/A
8:20 AM57 °FSunny.5 mph82%29.71 "Hg10 mi
7:50 AM52 °FSunny.3 mph94%29.71 "Hg10 mi
7:20 AM50 °FSunny.3 mph94%29.71 "Hg10 mi
6:50 AM48 °FPassing clouds.5 mph100%29.71 "HgN/A
6:20 AM45 °FFog.3 mph100%29.71 "HgN/A
5:50 AM43 °FFog.6 mph100%29.71 "HgN/A
5:20 AM43 °FFog.5 mph100%29.71 "HgN/A
4:50 AM43 °FFog.1 mph100%29.71 "HgN/A
4:20 AM43 °FFog.5 mph100%29.71 "HgN/A
3:50 AM45 °FFog.2 mph100%29.71 "HgN/A
3:20 AM45 °FFog.2 mph100%29.71 "HgN/A
2:50 AM45 °FFog.1 mph100%29.71 "HgN/A
2:20 AM46 °FClear.2 mph100%29.74 "Hg10 mi
1:50 AM50 °FClear.3 mph94%29.74 "Hg10 mi
12:20 AM55 °FClear.3 mph82%29.74 "Hg10 mi
11:50 PM
Mon, Jul 27
52 °FClear.6 mph94%29.74 "Hg10 mi
11:20 PM57 °FClear.6 mph77%29.74 "Hg10 mi
10:50 PM57 °FSunny.6 mph77%29.71 "Hg10 mi
10:20 PM55 °FSunny.6 mph82%29.71 "Hg10 mi
9:50 PM59 °FSunny.6 mph72%29.71 "Hg10 mi
9:20 PM59 °FSunny.8 mph72%29.71 "Hg10 mi
8:50 PM61 °FPartly sunny.8 mph63%29.71 "HgN/A
8:20 PM63 °FPartly sunny.13 mph64%29.71 "HgN/A
7:50 PM63 °FPartly sunny.15 mph64%29.71 "HgN/A
7:20 PM63 °FScattered clouds.16 mph59%29.71 "HgN/A
6:50 PM64 °FScattered clouds.17 mph60%29.71 "HgN/A
6:20 PM64 °FScattered clouds.17 mph64%29.71 "HgN/A
5:50 PM64 °FPassing clouds.16 mph60%29.71 "HgN/A
5:20 PM63 °FScattered clouds.17 mph64%29.71 "HgN/A
4:50 PM63 °FScattered clouds.16 mph68%29.71 "HgN/A
4:20 PM63 °FPartly sunny.15 mph68%29.71 "HgN/A
3:50 PM61 °FPartly sunny.17 mph83%29.71 "HgN/A
3:20 PM59 °FLight rain. Partly sunny.20 mph82%29.68 "HgN/A
2:50 PM59 °FBroken clouds.17 mph88%29.68 "HgN/A
2:20 PM59 °FLight rain. Broken clouds.23 mph82%29.68 "HgN/A
1:50 PM59 °FPartly sunny.15 mph82%29.68 "HgN/A
1:20 PM61 °FLight rain. Partly sunny.24 mph72%29.68 "HgN/A
12:50 PM63 °FPartly sunny.16 mph68%29.65 "HgN/A
12:20 PM61 °FPartly sunny.22 mph68%29.65 "HgN/A
Weather by CustomWeather, © 2015

See weather overviewHow to use our weather pages